Regional Weather Roundup
Issued by NWS Burlington, VT

Home | Current Version | Previous Version | Text Only | Print | Product List | Glossary On
Versions: 1 2 3 4 5 6 7 8 9 10 11 12 13 14 15 16 17 18 19 20 21 22 23 24 25 26 27 28 29 30 31 32 33 34 35 36 37 38 39 40 41 42 43 44 45 46 47 48 49 50
000
ASUS41 KBTV 311310
RWRBTV
VERMONT REGIONAL WEATHER ROUNDUP
NATIONAL WEATHER SERVICE BURLINGTON VT
800 AM EST SAT JAN 31 2015

NOTE: "FAIR" INDICATES FEW OR NO CLOUDS BELOW 12,000 FEET WITH NO
SIGNIFICANT WEATHER AND/OR OBSTRUCTIONS TO VISIBILITY.

* THESE REPORTS ARE NOT UNDER NWS QUALITY CONTROL AND/OR DO NOT
  REPORT WEATHER SUCH AS PRECIPITATION AND FOG.

VTZ001>019-311400-
_____VERMONT_____


CITY           SKY/WX    TMP DP  RH WIND       PRES   REMARKS
BURLINGTON     MOSUNNY   -6 -15  65 N8        30.20R
MONTPELIER     MOSUNNY   -8 -14  74 NW14      30.07R WCI -29
MORRISVILLE    PTSUNNY   -7 -14  71 N10G17    30.13R WCI -25
ST. JOHNSBURY*   N/A     -4 -12  68 MISG      30.05R
LYNDONVILLE*   FAIR      -8 -15  71 W3        30.02S
MIDDLEBURY*    FAIR      -2  -9  71 N10G20    30.14R WCI -19
RUTLAND*       MOSUNNY   -2  -8  78 NW10G16   30.07R WCI -19
SPRINGFIELD    MOSUNNY    1 -10  60 W10       30.04R WCI -15
HIGHGATE*      FAIR      -8 -15  69 W3        30.22S
NEWPORT*       PTSUNNY   -8 -15  74 NW9       30.07R
BENNINGTON     FAIR      -2 -12  62 NW5       30.09R

_____LAKE CHAMPLAIN_____


CITY           SKY/WX    TMP DP  RH WIND       PRES   REMARKS

$$

NYZ007-026>031-035-052-083-311400-
_____NORTHERN NEW YORK_____


CITY           SKY/WX    TMP DP  RH WIND       PRES   REMARKS
PLATTSBURGH    MOSUNNY   -6 -14  68 CALM      30.21R
SARANAC LAKE     N/A    -17 -20  86 MISG      30.06S
MASSENA        PTSUNNY  -13 -19  75 SW6       30.31R
OGDENSBURG*    SUNNY     -9 -15  77 NW5       30.30R
POTSDAM*       SUNNY    -13 -17  84 SW5       30.28R
WATERTOWN        N/A    N/A N/A N/A MISG      30.32S
FT DRUM        MOSUNNY   -9 -14  80 W2        30.26S
ALBANY         MOSUNNY    0 -13  54 W15G21    30.19R WCI -19
GLENS FALLS    MOSUNNY   -1 -14  53 N9        30.17R

$$
NHZ002-005-011-311400-
_____NEW HAMPSHIRE_____


CITY           SKY/WX    TMP DP  RH WIND       PRES   REMARKS
LEBANON        SUNNY     -1 -12  59 N7G17     30.05R
KEENE          SUNNY      3  -8  60 N14G20    29.97R WCI -15
MT WASHINGTON  PTSUNNY   -4  -8  84 N54G70      N/A  WCI -38
PLYMOUTH       LGT SNOW   0  -6  77 W25G37    29.92R WCI -25
WHITEFIELD     CLOUDY    -5 -13  68 NW6       30.00R

$$

_____REGIONAL QUEBEC LOCATIONS_____


CITY           SKY/WX    TMP DP  RH WIND       PRES   REMARKS
MONTREAL       MOSUNNY   -8 -18  59 W9        30.25S
QUEBEC CITY    MOSUNNY   -6 -15  65 SW9       30.02R
SHERBROOKE     SUNNY     -9 -17  70 W10       30.07R WCI -28

_____REGIONAL ONTARIO LOCATIONS_____


CITY           SKY/WX    TMP DP  RH WIND       PRES   REMARKS
OTTAWA         SUNNY    -11 -17  77 W9        30.28R

______KEY______
VSB  - VISIBILITY IN MILES
WCI  - WIND CHILL INDEX
HX   - HEAT INDEX
$$
NNNN


USA.gov is the U.S. government's official web portal to all federal, state and local government web resources and services.